• In Deutschland
  • Länderverzeichnis
  • Für 7 Tage
  • Wassertemperatur
  • Satellitenkarten
  • Wetterkarte
  • Widgets
  • user-avatar
    Anmelden

    Stündliche Wetter Warburg

    Heute, 20 Juli, Freitag

    Zeit Temperatur Niederschläge Wind Luftdruck Luftfeuchtigkeit
    00:00 +16°C° 0 mm 1 m/S 742 mmHg 78%
    01:00 +15°C° 0 mm 1 m/S 742 mmHg 80%
    02:00 +15°C° 0 mm 1 m/S 742 mmHg 80%
    03:00 +15°C° 0 mm 1 m/S 742 mmHg 81%
    04:00 +14°C° 0 mm 1 m/S 742 mmHg 82%
    05:00 +16°C° 0 mm 1 m/S 742 mmHg 78%
    06:00 +18°C° 0 mm 1 m/S 742 mmHg 75%
    07:00 +20°C° 0 mm 1 m/S 742 mmHg 71%
    08:00 +22°C° 0 mm 1 m/S 742 mmHg 65%
    09:00 +24°C° 0 mm 1 m/S 741 mmHg 58%
    10:00 +26°C° 0 mm 1 m/S 741 mmHg 51%
    11:00 +27°C° 0 mm 1 m/S 741 mmHg 48%
    12:00 +28°C° 0 mm 1 m/S 741 mmHg 45%
    13:00 +26°C° 0 mm 0 m/S 741 mmHg 42%
    14:00 +26°C° 0 mm 0 m/S 740 mmHg 42%
    15:00 +26°C° 0 mm 0 m/S 740 mmHg 43%
    16:00 +26°C° 0 mm 0 m/S 740 mmHg 43%
    17:00 +27°C° 0 mm 1 m/S 740 mmHg 48%
    18:00 +26°C° 0 mm 1 m/S 739 mmHg 53%
    19:00 +25°C° 0 mm 1 m/S 739 mmHg 58%
    20:00 +23°C° 0 mm 1 m/S 739 mmHg 61%
    21:00 +22°C° 0 mm 1 m/S 739 mmHg 64%
    22:00 +20°C° 0 mm 1 m/S 739 mmHg 67%
    23:00 +19°C° 0 mm 1 m/S 739 mmHg 69%

    Morgen, 21 Juli, Samstag

    Zeit Temperatur Niederschläge Wind Luftdruck Luftfeuchtigkeit
    00:00 +18°C° 0 mm 2 m/S 739 mmHg 72%
    01:00 +17°C° 0 mm 2 m/S 739 mmHg 74%
    02:00 +18°C° 0 mm 1 m/S 739 mmHg 76%
    03:00 +18°C° 0 mm 1 m/S 738 mmHg 78%
    04:00 +18°C° 0 mm 1 m/S 738 mmHg 80%
    05:00 +19°C° 0 mm 1 m/S 738 mmHg 78%
    06:00 +20°C° 0 mm 1 m/S 738 mmHg 76%
    07:00 +21°C° 0 mm 1 m/S 739 mmHg 74%
    08:00 +23°C° 0,1 mm 1 m/S 739 mmHg 69%
    09:00 +24°C° 0,1 mm 2 m/S 739 mmHg 65%
    10:00 +26°C° 0,1 mm 2 m/S 739 mmHg 60%
    11:00 +27°C° 0,4 mm 2 m/S 739 mmHg 57%
    12:00 +28°C° 0,4 mm 2 m/S 738 mmHg 54%
    13:00 +28°C° 0,4 mm 2 m/S 738 mmHg 51%
    14:00 +28°C° 0 mm 2 m/S 738 mmHg 50%
    15:00 +29°C° 0 mm 2 m/S 738 mmHg 49%
    16:00 +29°C° 0 mm 1 m/S 738 mmHg 48%
    17:00 +27°C° 0,2 mm 1 m/S 738 mmHg 56%
    18:00 +26°C° 0,2 mm 1 m/S 738 mmHg 64%
    19:00 +25°C° 0,2 mm 2 m/S 738 mmHg 72%
    20:00 +23°C° 0,1 mm 1 m/S 738 mmHg 75%
    21:00 +22°C° 0,1 mm 1 m/S 738 mmHg 78%
    22:00 +21°C° 0,1 mm 1 m/S 739 mmHg 80%
    23:00 +20°C° 0 mm 1 m/S 739 mmHg 81%

    übermorgen, 22 Juli, Sonntag

    Zeit Temperatur Niederschläge Wind Luftdruck Luftfeuchtigkeit
    00:00 +20°C° 0 mm 1 m/S 739 mmHg 83%
    01:00 +19°C° 0 mm 1 m/S 739 mmHg 84%
    02:00 +19°C° 0 mm 1 m/S 739 mmHg 84%
    03:00 +18°C° 0 mm 1 m/S 739 mmHg 85%
    04:00 +18°C° 0 mm 1 m/S 739 mmHg 85%
    05:00 +19°C° 0 mm 1 m/S 739 mmHg 82%
    06:00 +20°C° 0 mm 1 m/S 739 mmHg 79%
    07:00 +22°C° 0 mm 1 m/S 739 mmHg 75%
    08:00 +24°C° 0 mm 1 m/S 739 mmHg 68%
    09:00 +25°C° 0 mm 1 m/S 739 mmHg 61%
    10:00 +27°C° 0 mm 1 m/S 739 mmHg 53%
    11:00 +28°C° 0,1 mm 1 m/S 739 mmHg 51%
    12:00 +29°C° 0,1 mm 1 m/S 739 mmHg 49%
    13:00 +29°C° 0,1 mm 1 m/S 739 mmHg 47%
    14:00 +29°C° 0,2 mm 1 m/S 739 mmHg 49%
    15:00 +28°C° 0,2 mm 1 m/S 739 mmHg 52%
    16:00 +28°C° 0,2 mm 2 m/S 739 mmHg 54%
    17:00 +27°C° 0,4 mm 2 m/S 739 mmHg 60%
    18:00 +26°C° 0,4 mm 2 m/S 739 mmHg 67%
    19:00 +25°C° 0,4 mm 2 m/S 739 mmHg 73%
    20:00 +23°C° 0,2 mm 2 m/S 740 mmHg 77%
    21:00 +20°C° 0,2 mm 2 m/S 740 mmHg 82%
    22:00 +18°C° 0,2 mm 2 m/S 740 mmHg 87%
    23:00 +18°C° 0 mm 2 m/S 740 mmHg 88%

    23 Juli, Montag

    Zeit Temperatur Niederschläge Wind Luftdruck Luftfeuchtigkeit
    00:00 +17°C° 0 mm 2 m/S 741 mmHg 89%
    01:00 +16°C° 0 mm 1 m/S 741 mmHg 91%
    02:00 +15°C° 0 mm 1 m/S 741 mmHg 91%
    03:00 +15°C° 0 mm 1 m/S 741 mmHg 92%
    04:00 +14°C° 0 mm 1 m/S 741 mmHg 93%
    05:00 +15°C° 0 mm 1 m/S 741 mmHg 90%
    06:00 +16°C° 0 mm 1 m/S 741 mmHg 87%
    07:00 +18°C° 0 mm 1 m/S 742 mmHg 84%
    08:00 +20°C° 0 mm 1 m/S 742 mmHg 76%
    09:00 +21°C° 0 mm 2 m/S 742 mmHg 67%
    10:00 +24°C° 0 mm 2 m/S 742 mmHg 59%
    11:00 +25°C° 0 mm 2 m/S 742 mmHg 56%
    12:00 +26°C° 0 mm 2 m/S 742 mmHg 52%
    13:00 +27°C° 0 mm 2 m/S 741 mmHg 49%
    14:00 +27°C° 0 mm 2 m/S 741 mmHg 49%
    15:00 +27°C° 0 mm 2 m/S 741 mmHg 49%
    16:00 +27°C° 0 mm 3 m/S 741 mmHg 50%
    17:00 +26°C° 0 mm 2 m/S 741 mmHg 56%
    18:00 +25°C° 0 mm 2 m/S 741 mmHg 62%
    19:00 +24°C° 0 mm 2 m/S 741 mmHg 67%
    20:00 +23°C° 0 mm 1 m/S 741 mmHg 73%
    21:00 +21°C° 0 mm 1 m/S 741 mmHg 79%
    22:00 +17°C° 0 mm 0 m/S 741 mmHg 84%
    23:00 +17°C° 0 mm 0 m/S 741 mmHg 85%

    24 Juli, Dienstag

    Zeit Temperatur Niederschläge Wind Luftdruck Luftfeuchtigkeit
    00:00 +16°C° 0 mm 0 m/S 741 mmHg 87%
    01:00 +16°C° 0 mm 0 m/S 741 mmHg 88%
    02:00 +16°C° 0 mm 0 m/S 741 mmHg 89%
    03:00 +15°C° 0 mm 0 m/S 741 mmHg 90%
    04:00 +15°C° 0 mm 0 m/S 740 mmHg 91%
    05:00 +17°C° 0 mm 0 m/S 741 mmHg 86%
    06:00 +18°C° 0 mm 0 m/S 741 mmHg 82%
    07:00 +21°C° 0 mm 1 m/S 741 mmHg 77%
    08:00 +23°C° 0 mm 1 m/S 741 mmHg 71%
    09:00 +25°C° 0 mm 1 m/S 741 mmHg 64%
    10:00 +27°C° 0 mm 1 m/S 740 mmHg 57%
    11:00 +28°C° 0 mm 1 m/S 740 mmHg 54%
    12:00 +29°C° 0 mm 1 m/S 740 mmHg 51%
    13:00 +30°C° 0 mm 1 m/S 740 mmHg 49%
    14:00 +27°C° 0 mm 0 m/S 739 mmHg 50%
    15:00 +27°C° 0 mm 0 m/S 739 mmHg 52%
    16:00 +26°C° 0 mm 0 m/S 739 mmHg 53%
    17:00 +26°C° 0 mm 0 m/S 739 mmHg 58%
    18:00 +27°C° 0 mm 1 m/S 739 mmHg 62%
    19:00 +26°C° 0 mm 1 m/S 739 mmHg 67%
    20:00 +25°C° 0 mm 1 m/S 739 mmHg 70%
    21:00 +23°C° 0 mm 1 m/S 739 mmHg 74%
    22:00 +21°C° 0 mm 1 m/S 739 mmHg 78%
    23:00 +21°C° 0 mm 1 m/S 739 mmHg 80%

    25 Juli, Mittwoch

    Zeit Temperatur Niederschläge Wind Luftdruck Luftfeuchtigkeit
    00:00 +21°C° 0 mm 1 m/S 739 mmHg 81%
    01:00 +20°C° 0 mm 1 m/S 739 mmHg 82%
    02:00 +20°C° 0 mm 1 m/S 739 mmHg 83%
    03:00 +19°C° 0 mm 1 m/S 739 mmHg 84%
    04:00 +19°C° 0 mm 1 m/S 739 mmHg 86%
    05:00 +20°C° 0 mm 1 m/S 740 mmHg 82%
    06:00 +22°C° 0 mm 1 m/S 740 mmHg 78%
    07:00 +23°C° 0 mm 1 m/S 740 mmHg 74%
    08:00 +25°C° 0 mm 1 m/S 740 mmHg 67%
    09:00 +27°C° 0 mm 1 m/S 740 mmHg 61%
    10:00 +29°C° 0 mm 1 m/S 740 mmHg 54%
    11:00 +29°C° 0,1 mm 1 m/S 740 mmHg 51%
    12:00 +30°C° 0,1 mm 1 m/S 740 mmHg 48%
    13:00 +30°C° 0,1 mm 1 m/S 740 mmHg 45%
    14:00 +30°C° 0 mm 1 m/S 740 mmHg 47%
    15:00 +30°C° 0 mm 1 m/S 740 mmHg 49%
    16:00 +29°C° 0 mm 1 m/S 740 mmHg 51%
    17:00 +28°C° 0,1 mm 1 m/S 740 mmHg 55%
    18:00 +28°C° 0,1 mm 1 m/S 740 mmHg 60%
    19:00 +27°C° 0,1 mm 1 m/S 740 mmHg 64%
    20:00 +23°C° 0 mm 0 m/S 740 mmHg 67%
    21:00 +22°C° 0 mm 0 m/S 740 mmHg 70%
    22:00 +20°C° 0 mm 0 m/S 741 mmHg 73%
    23:00 +20°C° 0,1 mm 0 m/S 741 mmHg 75%
    Mehr zeigen